SCP
0 0 0 0 0 0 0 0 0 0 0 0 0 0 0 0 0 0 0 0 0 0 0 0 0 0 0 0 0 0 0 0 0 0 0 0 0 0 0 0 0 0 0 0 0 0 0 0 0
0 0 0 0 0 0 0 0 0 0 0 0 0 0 0 0 0 0 0 0 0 0 0 0 0 0 0 0 0 0 0 0 0 0 0 0 0 0 0 0 0 0 0 0 0 0 0 0 0
0 0 0 0 0 0 0 0 0 0 0 0 0 0 0 0 0 0 0 0 0 0 0 0 0 0 0 0 0 0 0 0 0 0 0 0 0 0 0 0 0 0 0 0 0 0 0 0 0
0 0 0 0 0 0 0 0 0 0 0 0 0 0 0 0 0 0 0 0 0 0 0 0 0 0 0 0 0 0 0 0 0 0 0 0 0 0 0 0 0 0 0 0 0 0 0 0 0
0 0 0 0 0 0 0 0 0 0 0 0 0 0 0 0 0 0 0 0 0 0 0 0 0 0 0 0 0 0 0 0 0 0 0 0 0 0 0 0 0 0 0 0 0 0 0 0 0
0 0 0 0 0 0 0 0 0 0 0 0 0 0 0 0 0 0 0 0 0 0 0 0 0 0 0 0 0 0 0 0 0 0 0 0 0 0 0 0 0 0 0 0 0 0 0 0 0
0 0 0 0 0 0 0 0 0 0 0 0 0 0 0 0 0 0 0 0 0 0 0 0 0 0 0 0 0 0 0 0 0 0 0 0 0 0 0 0 0 0 0 0 0 0 0 0 0
0 0 0 0 0 0 0 0 0 0 0 0 0 0 0 0 0 0 0 0 0 0 0 0 0 0 0 0 0 0 0 0 0 0 0 0 0 0 0 0 0 0 0 0 0 0 0 0 0
0 0 0 0 0 0 0 0 0 0 0 0 0 0 0 0 0 0 0 0 0 0 0 0 0 0 0 0 0 0 0 0 0 0 0 0 0 0 0 0 0 0 0 0 0 0 0 0 0
0 0 0 0 0 0 0 0 0 0 0 0 0 0 0 0 0 0 0 0 0 0 0 0 0 0 0 0 0 0 0 0 0 0 0 0 0 0 0 0 0 0 0 0 0 0 0 0 0
0 0 0 0 0 0 0 0 0 0 0 0 0 0 0 0 0 0 0 0 0 0 0 0 0 0 0 0 0 0 0 0 0 0 0 0 0 0 0 0 0 0 0 0 0 0 0 0 0
0 0 0 0 0 0 0 0 0 0 0 0 0 0 0 0 0 0 0 0 0 0 0 0 0 0 0 0 0 0 0 0 0 0 0 0 0 0 0 0 0 0 0 0 0 0 0 0 0
0 0 0 0 0 0 0 0 0 0 0 0 0 0 0 0 0 0 0 0 0 0 0 0 0 0 0 0 0 0 0 0 0 0 0 0 0 0 0 0 0 0 0 0 0 0 0 0 0
0 0 0 0 0 0 0 0 0 0 0 0 0 0 0 0 0 0 0 0 0 0 0 0 0 0 0 0 0 0 0 0 0 0 0 0 0 0 0 0 0 0 0 0 0 0 0 0 0
0 0 0 0 0 0 0 0 0 0 0 0 0 0 0 0 0 0 0 0 0 0 0 0 0 0 0 0 0 0 0 0 0 0 0 0 0 0 0 0 0 0 0 0 0 0 0 0 0
0 0 0 0 0 0 0 0 0 0 0 0 0 0 0 0 0 0 0 0 0 0 0 0 0 0 0 0 0 0 0 0 0 0 0 0 0 0 0 0 0 0 0 0 0 0 0 0 0
0 0 0 0 0 0 0 0 0 0 0 0 0 0 0 0 0 0 0 0 0 0 0 0 0 0 0 0 0 0 0 0 0 0 0 0 0 0 0 0 0 0 0 0 0 0 0 0 0
0 0 0 0 0 0 0 0 0 0 0 0 0 0 0 0 0 0 0 0 0 0 0 0 0 0 0 0 0 0 0 0 0 0 0 0 0 0 0 0 0 0 0 0 0 0 0 0 0
0 0 0 0 0 0 0 0 0 0 0 0 0 0 0 0 0 0 0 0 0 0 0 0 0 0 0 0 0 0 0 0 0 0 0 0 0 0 0 0 0 0 0 0 0 0 0 0 0
0 0 0 0 0 0 0 0 0 0 0 0 0 0 0 0 0 0 0 0 0 0 0 0 0 0 0 0 0 0 0 0 0 0 0 0 0 0 0 0 0 0 0 0 0 0 0 0 0
0 0 0 0 0 0 0 0 0 0 0 0 0 0 0 0 0 0 0 0 0 0 0 0 0 0 0 0 0 0 0 0 0 0 0 0 0 0 0 0 0 0 0 0 0 0 0 0 0
0 0 0 0 0 0 0 0 0 0 0 0 0 0 0 0 0 0 0 0 0 0 0 0 0 0 0 0 0 0 0 0 0 0 0 0 0 0 0 0 0 0 0 0 0 0 0 0 0
0 0 0 0 0 0 0 0 0 0 0 0 0 0 0 0 0 0 0 0 0 0 0 0 0 0 0 0 0 0 0 0 0 0 0 0 0 0 0 0 0 0 0 0 0 0 0 0 0
0 0 0 0 0 0 0 0 0 0 0 0 0 0 0 0 0 0 0 0 0 0 0 0 0 0 0 0 0 0 0 0 0 0 0 0 0 0 0 0 0 0 0 0 0 0 0 0 0
0 0 0 0 0 0 0 0 0 0 0 0 0 0 0 0 0 0 0 0 0 0 0 0 0 0 0 0 0 0 0 0 0 0 0 0 0 0 0 0 0 0 0 0 0 0 0 0 0
0 0 0 0 0 0 0 0 0 0 0 0 0 0 0 0 0 0 0 0 0 0 0 0 0 0 0 0 0 0 0 0 0 0 0 0 0 0 -0 0 0 0 0 0 0 0 0 0 0
0 0 0 0 0 0 0 0 0 0 0 0 0 0 0 0 0 0 0 0 0 0 0 0 0 0 0 0 0 0 0 0 0 0 0 0 0 0 0 -0 -0 0 0 0 0 0 0 0 0
0 0 0 0 0 0 0 0 0 0 0 0 0 0 0 0 0 0 0 0 0 0 0 0 0 0 0 0 0 0 0 0 0 0 0 0 0 0 0 0 0 0 0 0 0 0 0 0 0
0 0 0 0 0 0 0 0 0 0 0 0 0 0 0 0 0 0 0 0 0 0 0 0 0 0 0 0 0 0 0 0 0 0 0 0 0 0 0 0 0 0 0 0 0 0 0 0 0
0 0 0 0 0 0 0 0 0 0 0 0 0 0 0 0 0 0 0 0 0 0 0 0 0 0 0 0 0 0 0 0 0 0 0 0 0 0 0 0 0 0 0 0 0 0 0 0 0
Wind_Speed
7 3 2 4 6 5 2 3 2 1 1 0 1 3 5 4 3 2 0 2 3 5 4 6 8 9 9 9 8 9 9 8 8 8 8 8 8 9 9 9 9 9 9 9 9 9 10 10 10
2 2 5 6 5 1 4 3 3 3 2 2 2 3 3 1 1 2 1 1 4 5 5 5 8 9 10 9 9 9 9 8 8 7 7 7 8 8 8 8 8 8 8 9 9 9 9 9 9
1 3 5 5 4 5 4 2 3 1 1 2 2 2 1 0 0 1 1 3 4 5 4 5 8 9 9 9 8 8 8 8 8 8 7 7 7 7 8 8 8 8 8 8 8 8 8 8 8
3 5 6 4 3 4 3 2 1 1 1 2 2 2 1 2 1 1 2 4 6 5 3 4 8 9 9 8 8 7 7 7 8 8 7 7 7 7 7 7 7 7 7 7 8 7 7 7 7
4 5 4 0 4 3 2 2 1 2 1 1 2 2 1 3 3 3 5 5 6 5 3 3 7 8 8 8 8 7 7 7 7 7 6 6 6 6 6 6 6 6 6 6 6 7 6 6 6
5 5 4 3 4 3 2 1 1 1 1 1 2 2 0 2 3 3 5 5 5 5 4 3 6 7 7 7 7 7 7 6 6 6 6 6 5 5 5 5 5 5 5 5 6 5 6 5 6
4 4 3 3 2 3 2 0 2 2 1 2 2 3 0 1 2 3 5 5 5 5 4 3 3 4 6 7 6 6 6 6 5 5 5 6 5 5 5 5 4 4 4 4 4 4 5 5 5
4 4 2 2 3 3 1 1 1 2 2 0 3 4 2 1 3 5 6 5 5 4 4 3 3 3 4 4 6 6 6 5 5 5 5 5 5 5 5 5 4 4 4 4 4 4 4 5 4
3 4 3 4 4 3 1 1 1 1 3 1 1 1 0 5 6 6 5 4 4 3 3 3 3 3 3 3 4 4 5 5 5 4 5 4 3 2 3 4 4 4 4 4 4 4 5 5 4
4 3 5 3 3 1 1 0 0 2 2 1 2 3 4 6 7 6 5 4 3 2 1 2 3 3 3 3 3 2 2 3 3 2 2 2 2 2 3 4 5 5 5 5 5 5 5 4 2
3 5 2 1 0 0 1 1 1 3 1 3 4 3 5 5 5 5 4 3 3 2 2 2 2 2 3 2 2 2 1 2 2 2 2 1 1 2 2 2 2 3 4 3 3 3 2 2 2
2 1 1 1 1 0 0 0 1 1 3 1 3 5 6 7 6 6 5 3 2 2 2 2 2 2 2 2 2 2 1 1 1 1 2 1 1 1 1 1 1 1 1 1 1 1 2 2 2
2 1 0 0 1 1 1 0 1 2 3 1 3 5 6 6 5 3 3 3 3 2 2 2 2 2 2 2 1 2 1 1 1 1 1 1 1 1 1 1 1 1 1 1 1 1 1 1 1
2 1 1 1 1 1 1 1 0 4 1 2 4 4 5 5 4 3 3 3 3 3 2 2 2 2 2 2 2 1 1 1 1 1 1 1 1 1 1 1 1 1 0 0 1 1 1 1 1
1 1 3 2 1 1 1 4 4 3 2 2 2 3 3 3 3 4 4 3 3 3 3 2 2 2 2 2 1 1 1 1 1 1 1 1 1 2 2 1 1 0 0 1 1 1 1 1 1
2 1 2 3 0 0 2 6 3 1 2 2 2 2 2 2 3 2 3 2 2 2 3 3 2 2 2 1 1 1 1 1 1 1 1 1 1 2 1 1 1 0 1 1 1 1 1 1 1
1 1 3 3 0 1 2 6 4 1 2 3 3 3 3 2 2 2 2 2 2 3 3 3 2 3 2 1 1 1 1 1 1 1 1 0 1 1 1 1 0 1 1 1 0 1 0 0 1
4 3 3 4 2 1 3 7 7 3 2 4 3 3 3 3 4 2 2 2 2 2 2 3 2 2 2 2 2 1 1 1 1 1 0 0 1 1 1 1 1 1 1 1 1 1 0 0 0
3 3 3 3 1 1 4 8 9 5 2 4 4 4 4 4 3 1 1 1 2 2 2 2 2 2 2 1 1 1 0 0 0 0 1 0 0 1 1 1 1 1 1 1 1 1 1 1 1
2 2 3 3 2 1 3 8 8 5 5 6 6 5 5 4 2 1 1 1 2 2 2 2 2 2 1 1 1 1 1 1 1 0 0 1 1 0 1 1 1 1 1 1 1 1 1 0 1
3 5 4 3 3 2 3 7 5 3 3 3 4 4 4 5 5 3 2 2 2 2 2 2 2 2 1 1 1 2 2 1 1 0 0 1 1 1 1 2 1 2 2 2 2 2 2 1 1
4 3 3 2 0 3 0 6 7 4 4 4 3 3 3 3 3 3 3 2 2 2 1 1 2 2 2 2 2 2 2 1 1 1 1 1 1 1 1 1 2 2 2 2 3 2 2 3 2
3 1 2 2 2 2 2 3 9 2 4 5 4 4 3 3 3 3 3 3 2 1 1 1 2 2 2 2 2 2 1 1 0 0 1 1 1 1 1 1 2 2 2 2 2 2 3 3 3
3 3 3 3 2 4 5 5 9 5 6 5 3 2 2 2 2 2 1 1 1 1 1 1 2 1 1 2 2 2 2 1 1 1 1 1 1 1 2 2 2 2 2 2 3 3 3 2 2
2 4 2 3 2 7 3 5 10 6 4 5 5 3 1 1 1 1 1 1 1 1 1 1 2 1 1 1 1 1 2 2 2 2 2 1 1 1 2 2 2 2 2 2 2 2 2 2 2
4 5 6 5 5 5 2 7 8 4 3 1 2 2 1 0 1 1 1 1 1 0 0 1 1 1 1 1 1 1 1 1 1 2 2 2 2 2 2 1 1 1 1 1 2 2 2 2 3
4 3 3 4 1 2 5 7 8 1 2 2 1 1 0 1 0 0 0 1 1 1 1 1 1 1 1 1 1 1 1 1 1 1 1 1 1 1 1 1 1 1 1 1 1 1 2 2 2
2 5 4 4 4 5 5 5 5 3 2 2 1 1 1 1 1 1 0 0 0 0 0 0 1 1 1 1 1 1 1 1 1 1 1 1 1 1 1 1 1 1 1 1 1 1 1 2 2
3 3 3 3 3 4 4 7 4 5 3 2 2 1 1 1 1 1 1 0 0 1 1 1 1 1 1 1 1 1 1 1 1 1 2 1 1 1 1 1 1 1 1 1 1 1 1 2 2
4 5 6 5 4 4 4 9 2 2 2 2 2 2 1 1 1 0 0 1 1 1 1 1 1 1 1 1 1 1 1 1 1 1 1 1 1 1 1 1 1 1 1 1 2 2 2 2 3
Wind_Direction
345 7 64 58 57 53 239 249 229 229 215 273 100 126 143 149 158 184 322 119 127 140 149 151 146 141 136 131 127 124 120 115 110 107 104 103 100 99 97 95 90 87 83 86 87 84 83 82 79
345 27 55 62 91 142 264 247 217 218 180 125 69 79 93 97 35 102 94 170 127 133 137 140 138 135 132 131 130 126 120 117 114 109 104 101 101 101 99 96 93 89 85 86 87 85 83 82 82
21 52 81 81 126 187 228 237 206 232 122 109 86 57 108 142 46 170 228 145 114 116 122 133 134 134 131 128 130 127 121 118 114 109 102 99 101 102 99 97 95 91 88 87 88 86 82 80 80
69 49 57 85 202 221 223 252 190 121 68 54 106 83 45 12 278 227 115 119 113 107 102 126 133 131 127 124 123 124 120 117 113 108 102 99 98 97 99 97 96 92 90 87 85 85 82 80 79
58 77 76 62 243 250 249 264 179 143 148 72 110 123 8 1 33 88 110 113 117 110 97 110 127 129 126 122 118 114 115 113 110 107 104 101 97 96 96 96 96 95 93 91 86 80 82 82 80
59 72 109 220 243 263 268 255 144 130 139 104 116 127 234 18 62 92 103 102 108 112 100 94 113 117 116 113 110 108 107 111 110 106 102 96 94 94 95 93 91 91 89 85 82 77 73 80 81
109 114 172 203 237 270 276 202 137 152 143 208 159 128 297 10 64 101 96 90 90 94 93 84 90 101 104 103 104 105 103 101 104 105 96 87 79 77 82 83 86 85 81 79 77 73 67 67 74
122 116 162 210 207 252 297 95 114 141 185 18 123 142 202 206 111 96 88 84 83 81 84 85 80 87 93 93 95 96 94 90 87 89 85 80 71 65 61 58 62 70 72 69 67 66 62 54 56
88 94 202 212 193 241 343 99 16 51 103 61 61 115 130 123 115 101 89 80 85 89 75 87 89 88 94 99 92 88 86 80 78 76 78 77 68 62 60 49 52 55 59 61 60 62 59 50 42
100 168 219 213 190 195 32 104 142 79 59 49 36 42 82 113 123 125 126 132 133 128 104 86 99 98 95 99 92 81 80 74 72 73 79 79 72 63 64 52 51 48 46 48 48 50 54 50 39
146 193 214 251 244 153 91 359 61 129 211 216 189 161 128 127 133 142 146 145 153 139 101 80 93 98 99 99 99 87 81 77 73 76 83 89 82 73 66 67 52 50 48 45 39 40 38 38 37
155 244 219 288 324 5 165 5 36 162 220 220 179 150 146 154 163 167 162 152 131 115 106 88 87 101 103 102 107 112 104 100 94 85 88 101 102 86 85 81 64 59 56 54 43 39 34 34 27
190 249 310 326 19 33 63 137 206 268 273 6 116 134 158 166 168 157 144 132 126 123 122 113 101 103 112 105 102 99 111 118 123 98 95 111 124 123 108 99 86 72 65 77 65 39 31 19 8
191 200 278 298 302 30 80 312 256 266 279 112 134 160 171 169 168 145 139 149 147 149 149 129 107 106 109 106 112 109 106 106 113 110 119 122 119 123 123 118 101 76 71 96 109 66 34 359 354
125 15 329 301 230 232 77 309 237 243 113 131 162 177 175 181 171 175 180 178 171 161 144 129 126 105 103 113 111 112 117 110 105 128 124 118 124 134 139 141 146 180 159 88 67 42 44 17 3
65 58 287 293 165 343 136 257 262 155 141 201 208 196 194 211 205 200 182 175 168 152 140 135 130 119 114 107 107 102 110 113 108 103 114 123 133 129 131 138 181 178 128 110 113 82 44 10 354
49 212 242 294 343 106 167 248 275 357 178 232 231 217 210 222 243 223 182 173 168 165 147 136 131 136 146 135 108 111 111 110 111 98 103 125 129 127 138 166 192 157 143 150 161 97 108 18 343
207 209 236 246 291 166 222 255 278 296 247 251 251 237 220 220 240 229 194 181 159 146 138 131 122 127 135 120 98 81 64 55 63 89 82 104 122 129 148 175 182 170 164 181 178 158 100 141 315
160 177 237 263 299 230 240 259 271 281 259 251 251 239 228 234 246 208 180 168 141 126 131 136 129 127 119 109 119 117 108 177 66 29 42 32 73 157 174 188 175 179 200 214 199 166 126 51 56
170 208 251 285 326 255 277 270 264 249 233 227 225 229 228 236 250 220 165 150 162 168 169 154 153 143 141 158 166 158 139 163 159 148 0 344 329 281 214 200 207 203 207 217 200 146 129 49 49
213 210 221 240 329 355 327 292 264 264 245 242 231 226 227 219 222 221 194 186 180 177 181 171 169 155 144 128 100 83 75 58 31 325 302 291 278 268 255 239 230 223 209 214 211 186 169 184 235
238 224 200 202 264 286 11 285 274 261 270 248 245 237 240 237 223 212 200 196 193 193 161 151 149 145 148 143 137 137 153 192 224 261 262 280 280 280 266 253 239 237 227 222 216 199 199 185 203
209 136 153 177 182 293 260 242 281 267 255 249 243 238 241 235 219 213 210 204 193 172 145 138 127 131 133 133 145 147 154 191 218 251 284 303 298 284 277 261 244 242 237 229 216 213 213 206 196
150 74 61 56 87 259 230 205 272 239 230 239 238 246 248 246 238 226 206 160 137 100 96 113 122 122 119 132 144 161 177 178 179 274 278 297 298 291 285 271 252 245 239 229 217 210 214 218 205
116 104 31 341 317 248 208 213 251 254 245 219 223 239 255 235 217 207 170 125 114 101 117 135 132 125 123 140 166 191 208 204 209 229 236 260 284 291 288 281 255 251 243 227 209 201 207 202 195
186 162 169 202 229 273 240 234 253 270 290 262 208 200 186 223 235 214 197 168 162 168 140 140 145 148 142 181 221 221 228 223 232 237 233 237 247 262 274 287 295 285 267 246 208 201 210 196 202
156 193 175 136 136 272 260 277 293 293 350 18 42 87 228 280 313 292 149 129 161 176 195 192 178 185 204 229 246 256 254 248 249 251 236 242 250 257 264 276 275 277 273 241 205 210 210 199 207
158 148 122 147 180 248 274 261 247 249 272 314 331 297 275 319 353 354 23 59 285 188 174 108 134 211 232 240 245 262 266 256 238 226 235 243 250 254 255 268 248 249 253 239 206 239 224 212 224
154 152 144 145 167 183 252 264 229 213 213 213 238 249 255 275 288 303 311 334 34 47 61 30 12 340 290 264 269 289 287 276 248 229 243 238 225 229 240 243 246 232 245 248 218 231 231 226 240
189 183 161 169 219 197 215 265 289 209 213 199 236 271 287 279 267 256 324 17 22 13 10 360 337 308 294 290 271 267 277 282 264 263 261 246 235 232 233 243 250 245 253 252 231 240 246 232 240